| time (UTC) | temp F | wind direction | speed MPH | gust MPH | rain 1hr in | rain 24hr in | rain mn in | humidity % | barometer mb |
| 20260903143528 | 72 | 259 | 2.0 | 7.0 | 0.00 | 0.87 | 0.64 | 96 | 1014.8 |
| 20260903142036 | 72 | 253 | 1.0 | 2.0 | 0.00 | 0.87 | 0.64 | 96 | 1014.7 |
| 20260903140544 | 71 | 344 | 1.0 | 4.0 | 0.00 | 0.87 | 0.64 | 96 | 1014.5 |
| 20260903135026 | 71 | 114 | 0.0 | 3.0 | 0.00 | 0.87 | 0.64 | 96 | 1014.4 |
| 20260903133604 | 70 | 329 | 0.0 | 4.0 | 0.00 | 0.87 | 0.64 | 96 | 1014.4 |
| 20260903132030 | 70 | 231 | 1.0 | 4.0 | 0.00 | 0.87 | 0.64 | 96 | 1014.6 |
| 20260903130539 | 69 | 277 | 2.0 | 5.0 | 0.00 | 0.87 | 0.64 | 96 | 1014.7 |
| 20260903125101 | 69 | 344 | 2.0 | 5.0 | 0.00 | 0.87 | 0.64 | 96 | 1014.5 |
| 20260903123528 | 70 | 270 | 1.0 | 3.0 | 0.00 | 0.87 | 0.64 | 96 | 1014.2 |
| 20260903122035 | 69 | 314 | 1.0 | 3.0 | 0.00 | 0.87 | 0.64 | 97 | 1014.2 |
| 20260903120544 | 68 | 338 | 0.0 | 1.0 | 0.00 | 0.87 | 0.64 | 96 | 1014.3 |
| 20260903115043 | 68 | 354 | 0.0 | 1.0 | 0.00 | 0.87 | 0.64 | 97 | 1014.2 |
| 20260903113531 | 68 | 23 | 1.0 | 3.0 | 0.00 | 0.87 | 0.64 | 97 | 1013.8 |
| 20260903112037 | 67 | 354 | 2.0 | 3.0 | 0.00 | 0.87 | 0.64 | 97 | 1013.8 |
| 20260903110529 | 67 | 335 | 0.0 | 1.0 | 0.00 | 0.87 | 0.64 | 97 | 1014.5 |
| 20260903105030 | 67 | 335 | 0.0 | 0.0 | 0.00 | 0.87 | 0.64 | 97 | 1014.9 |
| 20260903103541 | 67 | 319 | 0.0 | 0.0 | 0.00 | 0.87 | 0.64 | 97 | 1015.5 |
| 20260903102030 | 67 | 322 | 0.0 | 0.0 | 0.00 | 0.87 | 0.64 | 97 | 1015.1 |
| 20260903100539 | 67 | 322 | 0.0 | 0.0 | 0.00 | 0.87 | 0.64 | 97 | 1015.6 |
| 20260903095042 | 67 | 322 | 0.0 | 0.0 | 0.00 | 0.87 | 0.64 | 97 | 1015.5 |
| 20260903093549 | 67 | 286 | 1.0 | 3.0 | 0.00 | 0.87 | 0.64 | 97 | 1015.0 |
| 20260903092034 | 67 | 358 | 0.0 | 2.0 | 0.00 | 0.87 | 0.64 | 97 | 1014.4 |
| 20260903090545 | 67 | 12 | 0.0 | 2.0 | 0.00 | 0.87 | 0.64 | 97 | 1014.4 |
| 20260903085046 | 67 | 300 | 0.0 | 0.0 | 0.03 | 0.87 | 0.64 | 97 | 1014.8 |
| 20260903083552 | 67 | 300 | 0.0 | 5.0 | 0.09 | 0.87 | 0.64 | 97 | 1014.2 |
| 20260903082102 | 67 | 302 | 1.0 | 4.0 | 0.16 | 0.87 | 0.64 | 97 | 1014.6 |
| 20260903080530 | 67 | 312 | 1.0 | 3.0 | 0.19 | 0.87 | 0.64 | 97 | 1014.7 |
| 20260903075034 | 67 | 292 | 3.0 | 7.0 | 0.15 | 0.83 | 0.60 | 97 | 1014.4 |
| 20260903073543 | 67 | 337 | 1.0 | 3.0 | 0.11 | 0.78 | 0.55 | 97 | 1014.6 |
| 20260903072030 | 67 | 265 | 0.0 | 1.0 | 0.06 | 0.71 | 0.48 | 97 | 1017.0 |
| 20260903070536 | 67 | 265 | 0.0 | 1.0 | 0.05 | 0.68 | 0.45 | 97 | 1016.8 |
| 20260903065036 | 67 | 283 | 0.0 | 2.0 | 0.08 | 0.68 | 0.45 | 97 | 1015.4 |
| 20260903063525 | 67 | 287 | 1.0 | 3.0 | 0.12 | 0.67 | 0.44 | 97 | 1015.1 |
| 20260903062105 | 67 | 360 | 0.0 | 2.0 | 0.14 | 0.65 | 0.42 | 97 | 1015.2 |
| 20260903060552 | 67 | 280 | 2.0 | 3.0 | 0.17 | 0.63 | 0.40 | 97 | 1015.8 |
| 20260903055027 | 67 | 287 | 1.0 | 2.0 | 0.20 | 0.59 | 0.36 | 97 | 1016.4 |
| 20260903053534 | 67 | 290 | 1.0 | 2.0 | 0.19 | 0.55 | 0.32 | 97 | 1016.5 |
| 20260903052040 | 68 | 277 | 0.0 | 1.0 | 0.19 | 0.50 | 0.27 | 97 | 1017.0 |
| 20260903050532 | 68 | 283 | 0.0 | 3.0 | 0.21 | 0.45 | 0.22 | 96 | 1016.7 |
| 20260903045036 | 68 | 344 | 0.0 | 1.0 | 0.21 | 0.39 | 0.16 | 96 | 1017.1 |
| 20260903043546 | 68 | 279 | 0.0 | 3.0 | 0.31 | 0.36 | 0.13 | 96 | 1016.6 |
| 20260903042034 | 68 | 240 | 0.0 | 2.0 | 0.29 | 0.31 | 0.08 | 96 | 1017.3 |
| 20260903040548 | 68 | 173 | 0.0 | 2.0 | 0.24 | 0.24 | 0.01 | 96 | 1018.5 |
| 20260903035052 | 68 | 150 | 1.0 | 5.0 | 0.18 | 0.18 | 0.18 | 96 | 1019.1 |
| 20260903033543 | 68 | 272 | 0.0 | 2.0 | 0.05 | 0.05 | 0.05 | 96 | 1018.7 |
| 20260903032041 | 68 | 311 | 1.0 | 4.0 | 0.02 | 0.02 | 0.02 | 96 | 1018.2 |
| 20260903030535 | 68 | 292 | 1.0 | 7.0 | 0.00 | 0.00 | 0.00 | 96 | 1017.3 |
| 20260903025036 | 68 | 233 | 0.0 | 3.0 | 0.00 | 0.00 | 0.00 | 95 | 1017.2 |
| 20260903023526 | 68 | 270 | 2.0 | 4.0 | 0.00 | 0.00 | 0.00 | 95 | 1017.0 |
| 20260903022038 | 68 | 246 | 0.0 | 3.0 | 0.00 | 0.00 | 0.00 | 95 | 1017.4 |
| 20260903020609 | 68 | 312 | 2.0 | 3.0 | 0.00 | 0.00 | 0.00 | 95 | 1017.5 |
| 20260903015032 | 68 | 288 | 1.0 | 2.0 | 0.00 | 0.00 | 0.00 | 95 | 1017.9 |
| 20260903013608 | 68 | 223 | 1.0 | 3.0 | 0.00 | 0.00 | 0.00 | 95 | 1017.6 |
| 20260903012052 | 68 | 295 | 1.0 | 4.0 | 0.00 | 0.00 | 0.00 | 95 | 1017.3 |
| 20260903010541 | 68 | 238 | 1.0 | 3.0 | 0.00 | 0.00 | 0.00 | 95 | 1017.1 |
| 20260903005048 | 68 | 285 | 3.0 | 5.0 | 0.00 | 0.00 | 0.00 | 95 | 1017.1 |
| 20260903003549 | 68 | 290 | 1.0 | 2.0 | 0.00 | 0.00 | 0.00 | 95 | 1017.7 |
| 20260903002103 | 68 | 292 | 1.0 | 4.0 | 0.00 | 0.00 | 0.00 | 95 | 1017.7 |
| 20260903000546 | 68 | 275 | 0.0 | 2.0 | 0.00 | 0.00 | 0.00 | 95 | 1017.5 |
| 20260902235028 | 68 | 279 | 0.0 | 2.0 | 0.00 | 0.00 | 0.00 | 95 | 1017.2 |
| 20260902233558 | 68 | 304 | 0.0 | 1.0 | 0.00 | 0.00 | 0.00 | 95 | 1017.0 |
| 20260902232027 | 68 | 302 | 0.0 | 2.0 | 0.00 | 0.00 | 0.00 | 95 | 1017.1 |
| 20260902230536 | 68 | 297 | 0.0 | 2.0 | 0.00 | 0.00 | 0.00 | 95 | 1016.9 |
| 20260902225036 | 68 | 275 | 1.0 | 2.0 | 0.00 | 0.00 | 0.00 | 95 | 1017.3 |
| 20260902223526 | 68 | 294 | 0.0 | 3.0 | 0.00 | 0.00 | 0.00 | 94 | 1017.6 |
| 20260902222036 | 69 | 265 | 0.0 | 5.0 | 0.00 | 0.00 | 0.00 | 94 | 1017.6 |
| 20260902220547 | 69 | 287 | 1.0 | 3.0 | 0.00 | 0.00 | 0.00 | 94 | 1017.7 |
| 20260902215052 | 69 | 275 | 0.0 | 2.0 | 0.00 | 0.00 | 0.00 | 94 | 1017.7 |
| 20260902213559 | 69 | 279 | 1.0 | 3.0 | 0.00 | 0.00 | 0.00 | 94 | 1017.8 |
| 20260902212027 | 69 | 159 | 1.0 | 2.0 | 0.00 | 0.00 | 0.00 | 94 | 1017.5 |
| 20260902210538 | 69 | 342 | 0.0 | 2.0 | 0.00 | 0.00 | 0.00 | 94 | 1017.6 |
| 20260902205039 | 69 | 15 | 0.0 | 0.0 | 0.00 | 0.00 | 0.00 | 94 | 1017.5 |
| 20260902203549 | 69 | 228 | 0.0 | 1.0 | 0.00 | 0.00 | 0.00 | 94 | 1017.7 |
| 20260902202058 | 69 | 21 | 1.0 | 4.0 | 0.00 | 0.00 | 0.00 | 94 | 1017.7 |
| 20260902200526 | 69 | 312 | 0.0 | 2.0 | 0.00 | 0.00 | 0.00 | 94 | 1017.7 |
| 20260902195051 | 69 | 242 | 0.0 | 3.0 | 0.00 | 0.00 | 0.00 | 95 | 1018.1 |
| 20260902193538 | 69 | 324 | 1.0 | 5.0 | 0.00 | 0.00 | 0.00 | 95 | 1017.5 |
| 20260902192028 | 69 | 220 | 1.0 | 4.0 | 0.00 | 0.00 | 0.00 | 95 | 1017.8 |
| 20260902190553 | 69 | 283 | 0.0 | 2.0 | 0.00 | 0.00 | 0.00 | 95 | 1018.0 |
| 20260902185031 | 69 | 331 | 0.0 | 2.0 | 0.00 | 0.00 | 0.00 | 95 | 1018.1 |
| 20260902183544 | 69 | 51 | 0.0 | 3.0 | 0.00 | 0.00 | 0.00 | 95 | 1018.5 |
| 20260902182034 | 69 | 283 | 1.0 | 5.0 | 0.00 | 0.00 | 0.00 | 95 | 1019.0 |
| 20260902180545 | 69 | 290 | 1.0 | 2.0 | 0.00 | 0.00 | 0.00 | 95 | 1018.9 |
| 20260902175027 | 69 | 273 | 1.0 | 3.0 | 0.00 | 0.00 | 0.00 | 95 | 1019.1 |
| 20260902173536 | 69 | 260 | 1.0 | 3.0 | 0.00 | 0.00 | 0.00 | 94 | 1019.0 |
| 20260902172044 | 69 | 302 | 0.0 | 2.0 | 0.00 | 0.00 | 0.00 | 95 | 1019.0 |
| 20260902170537 | 69 | 287 | 1.0 | 2.0 | 0.00 | 0.00 | 0.00 | 94 | 1018.9 |
| 20260902165059 | 69 | 331 | 1.0 | 3.0 | 0.00 | 0.00 | 0.00 | 94 | 1018.9 |
| 20260902163528 | 69 | 275 | 1.0 | 4.0 | 0.00 | 0.00 | 0.00 | 94 | 1019.1 |
| 20260902162040 | 69 | 215 | 4.0 | 7.0 | 0.00 | 0.00 | 0.00 | 93 | 1018.9 |
| 20260902160549 | 69 | 332 | 0.0 | 2.0 | 0.00 | 0.00 | 0.00 | 94 | 1019.1 |
| 20260902155025 | 69 | 15 | 0.0 | 2.0 | 0.00 | 0.00 | 0.00 | 94 | 1019.2 |
| 20260902153535 | 69 | 301 | 0.0 | 2.0 | 0.00 | 0.00 | 0.00 | 94 | 1019.2 |
| 20260902152041 | 69 | 260 | 0.0 | 2.0 | 0.00 | 0.00 | 0.00 | 94 | 1019.3 |
| 20260902150527 | 69 | 324 | 1.0 | 3.0 | 0.00 | 0.00 | 0.00 | 93 | 1019.2 |
| 20260902145031 | 69 | 19 | 0.0 | 0.0 | 0.00 | 0.03 | 0.00 | 93 | 1019.3 |